Погода в Колышлее

Россия / Пензенская область     52°41′51″N   44°31′51″E
темп.,
°C
ветер,
м/с
пор.,
м/с
влажн.,
%
обл.,
%
осадки,
мм/ч
давл.,
гПа
погр.,
м
24 сентября, пт
пт2400:00+8ююв3694100 0.9 1012392
03:00+9ю1294100 1.6 1011250
06:00+8юз229494 0.0 1012122
09:00+10зюз2278100 0.0 1012379
12:00+12ю3362100 0.0 1012897
15:00+13ю2258100 0.0 10111072
18:00+11ю1268100 0.0 101012
21:00+9юв2273100 0.0 101017
25 сентября, сб
сб2500:00+8ююв227846 0.0 101022
03:00+9юв2279100 0.0 100930
06:00+7ююв22875 0.0 101017
09:00+11ю226857 0.0 1010344
12:00+14ю225354 0.0 10101158
15:00+15ю235171 0.1 10101448
18:00+13ююв226292 0.2 101118
21:00+12ю2267100 0.2 101136
26 сентября, вс
вс2600:00+11юз357572 0.0 1010137
03:00+8юз35856 0.0 1010101
06:00+7юз348561 0.0 101082
09:00+11ююз4570100 0.0 1008337
12:00+13юз565998 0.3 10071340
15:00+10юз4878100 0.8 1007652
18:00+9ююв2489100 0.9 1006351
21:00+9в3691100 2.1 1005441
27 сентября, пн
пн2700:00+9св3792100 1.2 1006424
03:00+9св389096 2.0 1008312
06:00+9ссв4888100 0.1 1010266
09:00+10ссв5983100 0.1 1012455
12:00+13ссв6765100 0.0 10141199
15:00+12с6773100 0.2 10151016
18:00+10ссв5986100 0.1 1018575
21:00+9ссв5885100 0.1 1019476
28 сентября, вт
вт2800:00+9ссв4787100 0.0 1020533
03:00+8всв4784100 0.1 1022511
06:00+8всв4883100 0.0 1024457
09:00+8св56716 0.0 1026640
12:00+11св45535 0.0 10271154
15:00+12св45455 0.0 10271478
18:00+9ссв36575 0.0 1029110
21:00+7св376119 0.0 1030157